Weather History for KSME - March, 2014

Change the Weather History Date:

Friday, March 7, 2014

  Actual Average Record
Temperature  
Mean Temperature 42 °F -  
Max Temperature 59 °F 53 °F 75 °F (2009)
Min Temperature 26 °F 31 °F 17 °F (2015)
Degree Days  
Heating Degree Days 22    
Moisture  
Dew Point 31 °F    
Average Humidity 71    
Maximum Humidity 100    
Minimum Humidity 41    
Precipitation  
Precipitation 0.00 in - - ()
Sea Level Pressure  
Sea Level Pressure 30.02 in    
Wind  
Wind Speed 1 mph (WNW)    
Max Wind Speed 9 mph    
Max Gust Speed -    
Visibility 10 miles    
Events      
Averages and records for this station are not official NWS values.
T = Trace of Precipitation, MM = Missing Value Source: NWS Daily Summary

Daily Weather History Graph

Daily Weather History Graph

Search for Another Location

Airport or City:

Trip Planner

Search our weather history database for the weather conditions in past years. The results will help you decide how hot, cold, wet, or windy it might be!

Date:

Astronomy

Mar. 07, 2014 Rise Set
Actual Time 7:01 AM EST 6:38 PM EST
Civil Twilight 6:35 AM EST 7:04 PM EST
Nautical Twilight 6:05 AM EST 7:34 PM EST
Astronomical Twilight 5:34 AM EST 8:04 PM EST
Moon 11:01 AM EST (3/7) 12:34 AM EST (3/7)
Length of Visible Light 12h 29m
Length of Day
11h 37m
Waxing Crescent, 42% of the Moon is Illuminated
Mar 7
Waxing Crescent
Mar 8
First Quarter
Mar 16
Full
Mar 23
Last Quarter
Mar 30
New

Hourly Weather History & Observations

Time (EST) Temp. Windchill Dew Point Humidity Pressure Visibility Wind Dir Wind Speed Gust Speed Precip Events Conditions
12:15 AM 30.2 °F - 28.4 °F 93% 30.05 in 10.0 mi Calm Calm - N/A   Clear
12:35 AM 32.0 °F - 30.2 °F 93% 30.04 in 10.0 mi Calm Calm - N/A   Clear
12:55 AM 32.0 °F - 28.4 °F 87% 30.03 in 10.0 mi Calm Calm - N/A   Clear
1:15 AM 30.2 °F - 26.6 °F 86% 30.04 in 10.0 mi Calm Calm - N/A   Clear
1:35 AM 30.2 °F - 28.4 °F 93% 30.04 in 10.0 mi Calm Calm - N/A   Clear
1:55 AM 30.2 °F - 28.4 °F 93% 30.03 in 7.0 mi Calm Calm - N/A   Clear
2:15 AM 30.2 °F - 28.4 °F 93% 30.03 in 10.0 mi Calm Calm - N/A   Clear
2:35 AM 28.4 °F - 28.4 °F 100% 30.02 in 10.0 mi Calm Calm - N/A   Clear
2:55 AM 28.4 °F - 28.4 °F 100% 30.02 in 10.0 mi Calm Calm - N/A   Clear
3:15 AM 28.4 °F - 28.4 °F 100% 30.01 in 10.0 mi Calm Calm - N/A   Clear
3:35 AM 28.4 °F - 26.6 °F 93% 30.01 in 10.0 mi Calm Calm - N/A   Clear
3:55 AM 28.4 °F - 28.4 °F 100% 30.01 in 10.0 mi Calm Calm - N/A   Clear
4:15 AM 28.4 °F - 28.4 °F 100% 30.01 in 10.0 mi Calm Calm - N/A   Clear
4:35 AM 28.4 °F - 26.6 °F 93% 30.01 in 10.0 mi Calm Calm - N/A   Clear
4:55 AM 28.4 °F - 26.6 °F 93% 30.01 in 10.0 mi Calm Calm - N/A   Clear
5:15 AM 28.4 °F - 26.6 °F 93% 30.00 in 7.0 mi Calm Calm - N/A   Clear
5:35 AM 28.4 °F - 26.6 °F 93% 30.01 in 10.0 mi Calm Calm - N/A   Clear
5:55 AM 28.4 °F - 28.4 °F 100% 30.02 in 10.0 mi Calm Calm - N/A   Clear
6:15 AM 26.6 °F - 26.6 °F 100% 30.02 in 10.0 mi Calm Calm - N/A   Clear
6:35 AM 28.4 °F - 28.4 °F 100% 30.03 in 10.0 mi Calm Calm - N/A   Clear
6:55 AM 28.4 °F - 26.6 °F 93% 30.04 in 10.0 mi Calm Calm - N/A   Clear
7:15 AM 28.4 °F - 26.6 °F 93% 30.05 in 10.0 mi Calm Calm - N/A   Clear
7:35 AM 28.4 °F - 26.6 °F 93% 30.05 in 10.0 mi Calm Calm - N/A   Clear
7:55 AM 28.4 °F - 28.4 °F 100% 30.06 in 10.0 mi Calm Calm - N/A   Clear
8:15 AM 30.2 °F - 28.4 °F 93% 30.06 in 10.0 mi Calm Calm - N/A   Clear
8:35 AM 32.0 °F - 30.2 °F 93% 30.06 in 10.0 mi Calm Calm - N/A   Clear
8:55 AM 32.0 °F - 32.0 °F 100% 30.07 in 10.0 mi Calm Calm - N/A   Clear
9:15 AM 33.8 °F - 30.2 °F 87% 30.07 in 10.0 mi Calm Calm - N/A   Clear
9:35 AM 37.4 °F - 30.2 °F 75% 30.07 in 10.0 mi Calm Calm - N/A   Clear
9:55 AM 41.0 °F - 30.2 °F 65% 30.07 in 10.0 mi Calm Calm - N/A   Clear
10:15 AM 41.0 °F 39.0 °F 30.2 °F 65% 30.07 in 10.0 mi ESE 3.5 mph - N/A   Clear
10:35 AM 44.6 °F - 32.0 °F 61% 30.07 in 10.0 mi Calm Calm - N/A   Clear
10:55 AM 44.6 °F - 32.0 °F 61% 30.06 in 10.0 mi Calm Calm - N/A   Clear
11:15 AM 46.4 °F - 32.0 °F 57% 30.06 in 10.0 mi Calm Calm - N/A   Clear
11:35 AM 50.0 °F - 32.0 °F 50% 30.05 in 10.0 mi Calm Calm - N/A   Clear
11:55 AM 50.0 °F - 32.0 °F 50% 30.04 in 10.0 mi Calm Calm - N/A   Clear
12:15 PM 51.8 °F - 32.0 °F 47% 30.03 in 10.0 mi Calm Calm - N/A   Clear
12:35 PM 51.8 °F - 33.8 °F 50% 30.02 in 10.0 mi North 3.5 mph - N/A   Clear
12:55 PM 53.6 °F - 33.8 °F 47% 30.01 in 10.0 mi Calm Calm - N/A   Clear
1:15 PM 53.6 °F - 33.8 °F 47% 29.99 in 10.0 mi WSW 3.5 mph - N/A   Clear
1:35 PM 53.6 °F - 33.8 °F 47% 29.98 in 10.0 mi Calm Calm - N/A   Clear
1:55 PM 55.4 °F - 33.8 °F 44% 29.98 in 10.0 mi Calm Calm - N/A   Clear
2:15 PM 55.4 °F - 35.6 °F 47% 29.98 in 10.0 mi NW 4.6 mph - N/A   Clear
2:35 PM 57.2 °F - 35.6 °F 44% 29.97 in 10.0 mi WNW 6.9 mph - N/A   Clear
2:55 PM 59.0 °F - 35.6 °F 42% 29.97 in 10.0 mi West 3.5 mph - N/A   Clear
3:15 PM 59.0 °F - 35.6 °F 42% 29.97 in 10.0 mi WNW 6.9 mph - N/A   Clear
3:35 PM 59.0 °F - 35.6 °F 42% 29.97 in 10.0 mi NW 4.6 mph - N/A   Clear
3:55 PM 59.0 °F - 35.6 °F 42% 29.97 in 10.0 mi West 3.5 mph - N/A   Clear
4:15 PM 59.0 °F - 35.6 °F 42% 29.97 in 10.0 mi NW 5.8 mph - N/A   Clear
4:35 PM 59.0 °F - 35.6 °F 42% 29.97 in 10.0 mi WNW 8.1 mph - N/A   Clear
4:55 PM 59.0 °F - 35.6 °F 42% 29.98 in 10.0 mi WNW 9.2 mph - N/A   Clear
5:15 PM 57.2 °F - 35.6 °F 44% 29.97 in 10.0 mi WNW 8.1 mph - N/A   Clear
5:35 PM 57.2 °F - 33.8 °F 41% 29.97 in 10.0 mi West 6.9 mph - N/A   Clear
5:55 PM 55.4 °F - 33.8 °F 44% 29.98 in 10.0 mi WNW 4.6 mph - N/A   Clear
6:15 PM 55.4 °F - 33.8 °F 44% 29.98 in 10.0 mi West 3.5 mph - N/A   Clear
6:35 PM 55.4 °F - 33.8 °F 44% 29.98 in 10.0 mi Calm Calm - N/A   Clear
6:55 PM 53.6 °F - 33.8 °F 47% 29.99 in 10.0 mi West 4.6 mph - N/A   Clear
7:15 PM 51.8 °F - 32.0 °F 47% 29.99 in 10.0 mi West 4.6 mph - N/A   Clear
7:35 PM 50.0 °F - 32.0 °F 50% 29.99 in 10.0 mi West 3.5 mph - N/A   Clear
7:55 PM 50.0 °F - 32.0 °F 50% 29.99 in 10.0 mi West 4.6 mph - N/A   Clear
8:15 PM 50.0 °F - 32.0 °F 50% 30.00 in 10.0 mi West 4.6 mph - N/A   Clear
8:35 PM 44.6 °F - 33.8 °F 66% 30.01 in 10.0 mi Calm Calm - N/A   Clear
8:50 PM 44.6 °F - 33.8 °F 66% 30.01 in 10.0 mi Calm Calm - N/A   Clear
9:15 PM 42.8 °F 41.1 °F 33.8 °F 70% 30.02 in 10.0 mi SE 3.5 mph - N/A   Clear
9:35 PM 41.0 °F - 33.8 °F 76% 30.02 in 10.0 mi Calm Calm - N/A   Clear
9:50 PM 41.0 °F - 33.8 °F 76% 30.02 in 10.0 mi Calm Calm - N/A   Clear
10:15 PM 41.0 °F - 33.8 °F 76% 30.02 in 10.0 mi Calm Calm - N/A   Clear
10:35 PM 37.4 °F - 33.8 °F 87% 30.02 in 10.0 mi Calm Calm - N/A   Clear
10:55 PM 37.4 °F - 33.8 °F 87% 30.03 in 10.0 mi Calm Calm - N/A   Clear
11:15 PM 37.4 °F - 32.0 °F 81% 30.03 in 10.0 mi Calm Calm - N/A   Clear
11:35 PM 35.6 °F - 33.8 °F 93% 30.03 in 10.0 mi Calm Calm - N/A   Clear
11:55 PM 35.6 °F - 33.8 °F 93% 30.04 in 10.0 mi Calm Calm - N/A   Clear